Theta_e
319 319 319 319 319 319 320 320 320 321 323 325 325 325 325 325 325 323 310 321 334 361 356 349 343 346 345 340 344 342 328 316 317 319 321 327 325 331 333 331 331 332 332 336 343
319 318 318 318 319 319 319 319 321 320 321 324 324 325 325 324 320 314 330 345 357 359 345 341 337 342 338 335 338 335 326 322 323 326 324 326 328 328 328 329 328 332 337 340 341
318 318 318 318 318 318 318 318 321 322 319 323 324 325 325 324 317 320 342 354 358 353 345 344 344 340 334 332 332 333 325 327 327 326 328 327 328 331 328 326 329 330 334 337 338
318 318 318 318 318 318 318 318 319 321 321 323 324 324 325 322 312 325 356 359 358 347 346 344 339 334 328 326 330 326 330 330 325 328 327 326 330 328 329 329 333 336 338 339 338
317 317 317 317 317 317 317 317 320 320 321 322 324 325 322 310 313 345 361 358 348 344 341 340 336 333 325 327 329 327 327 326 327 328 328 330 328 328 328 331 334 338 339 339 339
317 316 317 316 316 316 316 316 318 320 321 322 324 325 318 309 329 349 346 346 345 342 339 338 333 334 329 328 326 328 328 323 327 327 328 327 327 329 330 333 335 337 338 339 340
316 316 316 316 316 316 316 316 316 320 321 323 324 324 312 310 328 347 343 341 343 340 341 343 341 334 333 328 332 329 320 324 325 327 325 329 323 325 331 332 332 335 337 339 340
316 317 316 316 315 315 315 315 317 320 321 323 325 321 308 316 338 338 335 336 343 344 343 346 344 336 333 334 327 323 321 316 323 325 323 327 317 327 331 330 329 332 335 338 340
315 316 316 315 315 314 314 316 320 321 323 324 319 313 308 324 324 331 334 330 336 341 342 344 337 330 331 323 320 321 315 316 319 326 321 323 317 323 330 330 329 330 331 333 337
315 315 315 315 314 313 314 316 322 321 321 323 318 311 314 313 319 324 332 328 327 331 328 330 327 324 324 321 311 314 315 318 317 323 324 319 318 324 328 329 329 330 331 332 333
314 314 314 314 313 313 313 318 312 312 312 305 305 307 310 317 320 319 324 325 322 321 317 323 318 315 319 321 321 320 317 316 320 324 322 322 323 324 327 327 327 329 330 331 333
314 314 314 313 313 312 311 315 315 314 311 313 308 308 311 314 311 315 322 317 317 314 317 318 313 320 321 320 319 319 317 317 320 323 323 322 323 326 327 327 328 328 330 331 333
314 313 313 312 313 310 310 312 315 316 311 312 313 313 315 315 313 312 320 319 315 313 315 314 318 320 317 312 315 318 317 317 316 321 323 321 318 322 326 329 330 330 332 333 333
313 313 312 311 309 311 312 314 313 315 308 309 311 314 311 311 309 313 321 318 316 315 315 316 319 316 308 308 318 313 321 320 317 316 310 319 309 320 323 324 327 329 330 332 334
313 312 311 311 308 310 313 313 313 316 298 310 310 315 310 311 312 312 319 317 312 313 315 314 310 309 308 310 320 313 317 320 319 314 315 315 312 317 320 321 324 328 330 332 334
312 311 311 309 308 309 312 312 316 306 297 308 309 308 308 309 309 311 314 317 315 312 310 311 312 310 311 311 319 315 315 313 314 316 308 312 312 311 317 321 324 329 330 332 333
311 310 309 311 307 313 311 316 306 298 309 307 306 307 307 306 307 308 309 310 308 304 305 307 308 310 310 309 310 309 310 304 303 305 304 309 311 313 320 322 324 327 330 332 334
310 309 310 312 312 312 314 313 299 303 306 311 305 304 306 306 306 306 306 306 306 307 305 303 306 309 310 312 313 307 307 303 297 299 301 307 306 312 320 326 327 330 332 333 332
309 311 311 313 314 312 314 304 303 304 310 309 304 303 303 304 305 306 305 305 308 309 305 303 303 308 308 309 310 306 305 306 302 300 301 305 310 316 323 321 327 329 331 331 332
307 313 315 314 315 313 311 302 306 308 312 310 304 304 302 303 304 305 305 308 308 309 313 308 302 306 307 308 307 308 308 303 304 298 297 303 304 311 316 318 324 329 332 336 338
310 315 312 313 312 314 306 306 307 311 312 308 307 306 304 303 305 304 305 307 309 306 309 307 306 306 307 307 305 305 305 302 304 303 299 299 305 318 321 322 323 332 335 337 337
307 312 313 308 308 305 307 307 305 311 312 309 310 309 309 309 305 305 305 309 314 309 306 309 307 304 305 308 308 307 308 307 304 301 301 303 305 328 329 329 330 332 337 339 339
309 311 315 309 304 305 305 306 309 309 309 308 309 310 311 310 308 310 309 314 313 308 308 308 306 302 305 309 311 311 308 305 304 305 303 302 306 329 329 328 331 333 336 338 341
312 309 309 309 306 305 305 305 305 309 308 309 310 310 310 310 311 311 312 314 312 315 319 312 305 306 302 306 310 308 310 306 309 307 304 306 309 324 325 325 328 331 333 333 335
309 306 306 303 305 307 307 306 305 306 309 310 310 309 310 309 309 309 310 312 311 314 314 311 308 306 306 307 308 310 310 308 308 309 307 308 311 323 324 324 326 327 327 326 326
308 308 310 307 305 305 302 306 306 307 306 308 308 308 309 310 312 310 311 311 312 310 312 311 311 309 307 308 307 307 308 309 310 310 308 310 314 326 323 326 324 324 324 324 325
310 311 309 303 306 305 306 305 304 305 308 309 308 307 307 307 309 309 309 309 309 308 308 311 311 309 305 305 306 304 308 310 312 313 312 311 319 322 320 320 320 321 322 323 324
Wind_Speed
13 12 12 11 12 12 12 11 10 9 8 8 8 7 8 9 7 3 6 2 8 14 16 14 6 5 3 2 1 1 2 4 6 9 5 10 7 3 4 10 3 3 6 11 17
14 13 13 12 12 12 13 11 10 9 9 9 8 7 6 8 3 8 6 11 24 20 17 13 8 6 1 0 2 1 0 4 6 8 8 11 10 10 6 12 4 7 12 17 18
15 14 13 13 12 13 13 12 12 10 9 9 9 8 4 5 3 4 9 17 22 12 14 7 6 1 1 1 1 2 1 3 3 11 11 13 10 8 8 8 8 12 17 18 17
15 15 14 13 13 12 13 13 13 11 10 9 7 7 5 3 1 3 11 19 19 12 12 6 2 1 2 2 2 4 4 5 1 11 11 16 11 9 12 2 8 16 20 19 16
17 16 14 14 13 12 13 13 13 11 10 9 7 6 2 3 3 4 11 17 17 12 8 7 4 2 5 4 1 4 5 4 4 12 9 13 13 7 12 3 12 18 18 18 17
17 17 16 15 14 13 13 14 14 12 10 9 7 6 3 1 1 11 15 16 12 11 8 6 2 3 6 5 3 3 6 4 6 11 7 11 7 7 6 11 15 19 19 17 17
18 17 16 16 15 14 14 14 14 12 10 8 6 3 1 0 1 11 14 9 9 11 4 9 5 5 5 5 4 2 7 8 6 7 5 9 6 12 9 14 17 17 16 16 17
20 19 18 17 16 15 15 15 15 11 8 5 5 2 4 2 7 13 6 5 6 8 7 5 2 6 4 6 3 2 3 3 3 8 5 10 7 12 15 17 16 17 16 16 16
20 19 18 17 16 16 16 17 9 4 3 1 3 2 2 7 5 10 7 6 8 6 4 3 2 2 3 4 2 6 2 2 4 0 7 11 4 2 16 16 17 17 16 15 15
20 19 18 17 17 17 19 7 2 1 2 3 2 4 3 3 5 8 5 9 4 7 3 4 1 3 3 3 5 4 3 3 4 6 7 10 13 3 13 16 17 17 17 16 16
21 20 19 17 16 15 10 2 3 3 2 4 1 2 3 2 4 5 7 7 3 4 5 4 4 5 6 6 3 4 5 7 5 4 7 9 9 8 14 14 14 15 17 17 18
22 21 18 17 15 12 3 2 1 3 5 5 5 6 5 2 1 4 10 9 7 6 4 4 5 5 5 3 6 7 8 12 4 1 5 3 10 7 14 19 20 18 17 18 16
22 21 19 17 15 2 2 3 3 3 3 3 4 4 3 7 4 6 12 6 4 6 6 5 2 5 3 4 5 9 10 8 3 5 3 6 9 8 9 13 15 16 16 16 17
21 20 18 19 3 1 4 3 4 4 2 3 4 3 6 4 4 2 10 4 4 7 6 6 3 4 2 4 5 3 9 15 6 4 4 5 7 8 6 12 15 17 17 18 17
20 19 16 9 4 4 2 5 3 3 3 3 4 2 3 6 5 4 2 2 6 5 4 1 3 2 8 1 8 4 4 12 8 1 9 4 6 4 1 8 16 16 17 17 18
21 17 15 2 2 5 4 2 2 2 4 3 4 5 7 2 2 3 3 2 2 4 2 6 2 4 4 4 7 6 8 7 4 3 5 3 6 7 2 2 2 14 17 15 16
23 19 7 2 1 2 3 3 2 4 2 5 4 5 6 6 5 3 7 9 7 5 6 3 7 3 4 5 7 4 4 0 1 3 3 3 5 8 7 9 7 9 15 12 13
26 17 8 4 3 4 3 2 5 2 4 1 2 4 8 7 5 3 5 9 2 2 1 4 12 7 6 9 11 7 6 4 4 3 4 3 5 3 7 7 2 2 8 8 11
21 2 2 3 9 3 3 5 4 5 1 2 3 4 5 4 4 7 7 7 8 11 8 2 6 2 4 1 3 6 5 2 4 2 4 0 4 6 8 13 10 10 7 4 5
3 2 2 3 8 3 3 4 3 3 3 1 4 3 8 8 7 8 8 3 6 13 12 6 5 1 2 2 7 4 7 4 1 3 3 1 4 3 9 12 7 7 6 6 5
2 2 6 3 4 2 8 5 4 5 4 2 1 1 2 6 8 6 3 1 0 5 5 8 5 4 3 2 4 5 4 6 3 3 3 4 3 7 11 9 3 6 7 7 7
2 2 3 3 3 1 5 4 1 2 2 3 2 3 4 6 6 7 8 3 2 7 9 7 4 6 4 2 4 3 3 5 4 6 1 3 1 7 8 8 7 8 8 10 12
2 1 2 3 3 3 1 2 3 4 3 2 3 3 0 3 3 4 5 4 4 6 8 9 7 5 2 5 5 3 4 3 6 3 6 4 1 7 9 12 11 11 12 14 15
2 2 2 2 2 2 3 2 2 2 4 3 3 2 2 2 0 5 5 3 1 3 3 6 3 6 10 7 3 5 6 6 4 4 8 5 4 5 10 12 12 13 14 16 17
4 3 3 3 2 1 1 1 2 3 2 2 3 8 6 6 2 4 3 3 3 2 2 4 5 3 1 2 4 5 10 10 7 2 5 6 4 8 8 11 12 13 14 17 18
3 2 1 2 1 3 0 2 1 1 2 3 5 1 6 5 5 8 6 4 1 2 3 1 3 2 3 2 1 4 3 4 2 2 3 9 8 8 11 13 14 13 14 15 16
2 0 3 2 1 3 2 1 2 3 1 1 1 2 4 3 2 4 4 4 3 1 3 1 5 5 4 1 1 5 7 5 3 1 1 7 9 15 14 13 11 12 13 14 14
Wind_Direction
0 359 357 354 347 339 335 338 341 336 324 314 309 315 312 313 301 205 240 186 153 152 143 141 160 172 207 204 206 205 112 131 142 169 155 149 145 135 100 136 125 46 150 124 140
357 356 355 352 347 339 333 335 332 334 325 320 311 313 308 325 288 255 241 152 146 144 148 164 170 186 226 63 124 259 122 149 186 172 165 163 164 148 150 154 134 87 106 133 147
356 355 352 350 348 339 332 330 331 333 323 320 317 312 313 304 239 251 157 142 157 156 147 156 142 218 320 313 149 135 285 178 209 191 165 162 167 163 154 188 189 162 152 155 159
356 352 351 348 346 339 331 329 329 329 320 317 318 309 306 221 36 338 153 146 150 146 141 141 137 241 291 324 197 279 257 258 116 171 160 168 154 182 183 153 185 161 162 161 170
354 352 349 345 343 339 329 324 323 323 316 313 315 314 255 221 270 148 146 139 149 150 169 172 184 279 348 333 234 253 334 346 144 150 168 155 177 182 201 166 147 151 164 173 179
355 351 347 345 341 336 329 321 319 318 314 307 309 308 261 254 67 154 150 149 162 170 166 200 252 316 290 304 268 309 319 105 133 134 149 171 171 197 183 143 149 162 174 180 188
355 352 348 343 340 335 328 319 311 308 301 299 302 283 234 232 102 153 145 166 178 182 171 228 264 266 325 284 307 266 120 103 100 135 134 151 180 219 167 165 162 177 182 186 196
351 347 345 343 339 333 326 316 304 292 285 277 279 241 249 49 143 156 148 123 162 213 251 295 238 276 254 314 277 40 87 131 92 171 142 186 266 204 174 174 178 182 187 193 197
351 347 343 341 337 332 324 316 307 266 230 299 203 271 234 145 169 173 178 176 177 214 265 293 359 318 281 283 99 41 62 124 136 91 153 208 273 187 181 188 186 187 190 200 204
348 345 341 338 336 332 324 292 322 218 211 212 229 243 199 127 140 143 187 145 159 172 228 218 223 257 230 3 36 347 329 253 208 173 193 205 245 207 189 200 196 195 194 198 207
344 342 339 336 333 332 335 212 221 171 182 225 146 297 290 311 157 150 166 171 159 192 207 193 252 299 337 313 309 254 235 258 265 239 226 234 250 207 188 202 206 201 199 202 210
339 339 336 331 327 316 262 227 99 1 300 222 237 274 259 294 255 143 168 167 181 193 169 204 258 271 293 268 240 246 251 257 272 242 254 318 279 238 195 208 207 201 204 210 213
336 337 335 329 323 161 254 231 346 315 280 282 200 214 207 182 224 196 179 145 170 190 199 245 265 305 272 329 227 232 233 258 254 152 101 314 272 234 217 221 212 214 211 208 215
335 336 335 328 266 42 237 133 301 223 308 229 213 218 154 186 214 190 184 157 169 221 178 248 270 251 308 286 208 254 233 260 349 343 337 357 307 289 223 219 214 214 207 208 212
334 333 330 334 322 218 65 319 144 201 290 121 157 52 128 200 121 172 190 131 199 182 192 176 192 244 305 330 185 316 3 233 261 358 313 255 274 261 299 223 220 220 221 213 212
330 326 326 200 222 263 311 305 209 233 248 156 131 156 159 179 121 108 161 68 64 179 268 266 320 274 253 167 193 119 99 79 95 283 264 350 250 293 268 265 299 209 224 217 212
327 318 283 229 285 336 298 184 206 232 13 162 178 176 191 167 180 139 168 183 202 200 230 232 235 214 213 230 135 169 177 18 222 197 284 39 218 281 333 305 282 222 218 216 214
326 316 198 222 308 319 197 154 224 238 246 14 120 120 195 164 196 140 157 204 172 170 132 272 250 205 166 241 271 189 227 251 289 273 340 126 243 73 335 15 2 181 200 189 208
319 160 183 255 212 282 176 199 231 207 324 328 130 166 174 183 202 180 200 211 204 185 218 232 255 285 238 225 232 154 197 37 139 121 251 299 249 111 77 40 54 72 110 151 195
316 305 43 19 163 208 181 226 240 241 323 237 232 215 173 177 182 190 189 177 206 194 207 184 267 193 70 153 62 255 125 175 202 243 273 179 273 29 2 3 17 50 43 19 357
266 170 13 134 189 192 201 219 249 245 234 300 298 188 172 184 206 183 161 128 77 164 192 159 233 185 224 219 173 145 176 64 104 325 285 308 62 6 346 345 69 52 37 34 35
313 148 59 245 158 321 204 189 204 270 174 292 253 258 213 168 170 193 201 227 354 177 183 191 210 245 288 311 241 259 148 181 224 169 53 319 2 16 30 51 62 69 71 69 64
35 44 102 276 186 190 209 224 254 247 231 245 274 240 293 181 181 193 189 115 53 189 168 169 215 213 149 174 182 210 128 107 107 134 171 219 107 49 64 63 60 73 72 73 72
291 134 90 66 15 136 159 155 245 247 252 255 276 202 176 173 298 169 167 149 98 136 70 168 159 238 229 216 148 185 178 169 252 184 157 218 147 83 72 73 73 75 78 78 76
5 66 359 160 144 90 280 150 236 277 202 233 227 229 198 194 200 192 176 182 133 61 95 226 233 209 199 311 237 213 187 178 208 184 232 127 133 119 103 101 92 91 84 79 78
17 345 28 82 267 190 224 171 251 255 282 213 241 196 199 216 208 200 177 216 163 110 103 76 186 223 170 113 159 192 138 164 176 144 150 144 120 139 123 116 105 96 93 84 79
18 174 287 19 88 194 132 245 210 302 125 258 98 135 156 71 41 38 59 61 77 49 96 86 158 180 211 10 138 226 199 188 136 138 219 196 139 148 131 112 102 100 86 82 77